Time,TemperatureF,DewpointF,PressureIn,WindDirection,WindDirectionDegrees,WindSpeedMPH,WindSpeedGustMPH,Humidity,HourlyPrecipIn,Conditions,Clouds,dailyrainin,SoftwareType,DateUTC
2013-04-24 00:01:00,44.1,39.0,30.13,ESE,116,1.0,3.0,82,0.00,,---,0.00,VWS V14.01,2013-04-24 04:01:00,
2013-04-24 00:06:00,44.0,38.9,30.12,ESE,122,1.0,2.0,82,0.00,,---,0.00,VWS V14.01,2013-04-24 04:06:00,
2013-04-24 00:11:00,43.8,39.0,30.12,SE,124,1.0,2.0,83,0.00,,---,0.00,VWS V14.01,2013-04-24 04:11:00,
2013-04-24 00:16:00,43.8,39.0,30.13,SSE,158,1.0,2.0,83,0.00,,---,0.00,VWS V14.01,2013-04-24 04:16:00,
2013-04-24 00:21:00,43.8,39.3,30.13,West,259,0.0,2.0,84,0.00,,---,0.00,VWS V14.01,2013-04-24 04:21:00,
2013-04-24 00:26:00,43.5,39.0,30.12,SE,141,1.0,2.0,84,0.00,,---,0.00,VWS V14.01,2013-04-24 04:26:00,
2013-04-24 00:31:00,43.3,38.8,30.12,SE,143,0.0,0.0,84,0.00,,---,0.00,VWS V14.01,2013-04-24 04:31:00,
2013-04-24 00:36:00,43.1,38.9,30.12,WSW,252,0.0,1.0,85,0.00,,---,0.00,VWS V14.01,2013-04-24 04:36:00,
2013-04-24 00:41:00,42.8,38.9,30.12,WSW,252,1.0,1.0,86,0.00,,---,0.00,VWS V14.01,2013-04-24 04:41:00,
2013-04-24 00:46:00,42.6,38.7,30.12,SW,232,0.0,1.0,86,0.00,,---,0.00,VWS V14.01,2013-04-24 04:46:00,
2013-04-24 00:51:00,42.5,38.6,30.11,SW,232,0.0,1.0,86,0.00,,---,0.00,VWS V14.01,2013-04-24 04:51:00,
2013-04-24 00:56:00,42.3,38.7,30.11,SW,235,0.0,1.0,87,0.00,,---,0.00,VWS V14.01,2013-04-24 04:56:00,
2013-04-24 01:01:00,42.3,38.7,30.11,WSW,243,0.0,0.0,87,0.00,,---,0.00,VWS V14.01,2013-04-24 05:01:00,
2013-04-24 01:06:00,42.1,38.5,30.11,ESE,121,0.0,0.0,87,0.00,,---,0.00,VWS V14.01,2013-04-24 05:06:00,
2013-04-24 01:11:00,41.7,38.1,30.10,East,82,0.0,0.0,87,0.00,,---,0.00,VWS V14.01,2013-04-24 05:11:00,
2013-04-24 01:16:00,41.6,38.3,30.10,SSE,167,0.0,2.0,88,0.00,,---,0.00,VWS V14.01,2013-04-24 05:16:00,
2013-04-24 01:21:00,41.4,38.4,30.10,SSE,167,0.0,2.0,89,0.00,,---,0.00,VWS V14.01,2013-04-24 05:21:00,
2013-04-24 01:26:00,41.2,38.2,30.10,SSE,167,0.0,2.0,89,0.00,,---,0.00,VWS V14.01,2013-04-24 05:26:00,
2013-04-24 01:31:00,41.0,38.3,30.10,West,274,2.0,2.0,90,0.00,,---,0.00,VWS V14.01,2013-04-24 05:31:00,
2013-04-24 01:36:00,40.9,38.2,30.10,WSW,257,0.0,2.0,90,0.00,,---,0.00,VWS V14.01,2013-04-24 05:36:00,
2013-04-24 01:41:00,40.7,38.0,30.10,SE,143,1.0,2.0,90,0.00,,---,0.00,VWS V14.01,2013-04-24 05:41:00,
2013-04-24 01:46:00,40.4,37.7,30.10,SSE,150,0.0,2.0,90,0.00,,---,0.00,VWS V14.01,2013-04-24 05:46:00,
2013-04-24 01:51:00,40.3,37.6,30.10,SW,231,0.0,2.0,90,0.00,,---,0.00,VWS V14.01,2013-04-24 05:51:00,
2013-04-24 01:56:00,40.2,37.5,30.09,South,187,0.0,2.0,90,0.00,,---,0.00,VWS V14.01,2013-04-24 05:56:00,
2013-04-24 02:01:00,40.0,37.3,30.09,SE,132,0.0,2.0,90,0.00,,---,0.00,VWS V14.01,2013-04-24 06:01:00,
2013-04-24 02:06:00,39.8,37.1,30.09,SE,132,0.0,1.0,90,0.00,,---,0.00,VWS V14.01,2013-04-24 06:06:00,
2013-04-24 02:11:00,39.7,37.3,30.09,South,173,0.0,1.0,91,0.00,,---,0.00,VWS V14.01,2013-04-24 06:11:00,
2013-04-24 02:16:00,39.6,37.2,30.09,South,172,0.0,1.0,91,0.00,,---,0.00,VWS V14.01,2013-04-24 06:16:00,
2013-04-24 02:21:00,39.5,37.4,30.09,South,172,0.0,1.0,92,0.00,,---,0.00,VWS V14.01,2013-04-24 06:21:00,
2013-04-24 02:26:00,39.6,37.5,30.09,SW,236,0.0,1.0,92,0.00,,---,0.00,VWS V14.01,2013-04-24 06:26:00,
2013-04-24 02:31:00,39.6,37.5,30.09,WSW,246,0.0,1.0,92,0.00,,---,0.00,VWS V14.01,2013-04-24 06:31:00,
2013-04-24 02:36:00,39.9,37.8,30.09,WSW,246,1.0,1.0,92,0.00,,---,0.00,VWS V14.01,2013-04-24 06:36:00,
2013-04-24 02:41:00,39.9,37.8,30.08,SE,143,0.0,2.0,92,0.00,,---,0.00,VWS V14.01,2013-04-24 06:41:00,
2013-04-24 02:46:00,40.0,37.9,30.08,SW,214,0.0,2.0,92,0.00,,---,0.00,VWS V14.01,2013-04-24 06:46:00,
2013-04-24 02:51:00,39.7,37.3,30.08,SSW,213,0.0,2.0,91,0.00,,---,0.00,VWS V14.01,2013-04-24 06:51:00,
2013-04-24 02:56:00,39.6,37.5,30.08,SW,214,0.0,2.0,92,0.00,,---,0.00,VWS V14.01,2013-04-24 06:56:00,
2013-04-24 03:01:00,39.3,37.2,30.07,WSW,258,0.0,2.0,92,0.00,,---,0.00,VWS V14.01,2013-04-24 07:01:00,
2013-04-24 03:06:00,39.3,37.5,30.07,West,266,0.0,0.0,93,0.00,,---,0.00,VWS V14.01,2013-04-24 07:06:00,
2013-04-24 03:11:00,39.1,37.2,30.07,West,265,0.0,0.0,93,0.00,,---,0.00,VWS V14.01,2013-04-24 07:11:00,
2013-04-24 03:16:00,38.8,37.0,30.07,West,265,0.0,0.0,93,0.00,,---,0.00,VWS V14.01,2013-04-24 07:16:00,
2013-04-24 03:21:00,38.7,36.8,30.07,WSW,256,0.0,0.0,93,0.00,,---,0.00,VWS V14.01,2013-04-24 07:21:00,
2013-04-24 03:26:00,38.4,36.6,30.07,WSW,256,0.0,0.0,93,0.00,,---,0.00,VWS V14.01,2013-04-24 07:26:00,
2013-04-24 03:31:00,38.2,36.4,30.07,WSW,256,0.0,0.0,93,0.00,,---,0.00,VWS V14.01,2013-04-24 07:31:00,
2013-04-24 03:36:00,38.1,36.3,30.07,WSW,256,0.0,0.0,93,0.00,,---,0.00,VWS V14.01,2013-04-24 07:36:00,
2013-04-24 03:41:00,37.9,36.1,30.07,WSW,256,0.0,0.0,93,0.00,,---,0.00,VWS V14.01,2013-04-24 07:41:00,
2013-04-24 03:46:00,38.0,36.4,30.07,WSW,256,0.0,0.0,94,0.00,,---,0.00,VWS V14.01,2013-04-24 07:46:00,
2013-04-24 03:50:00,37.9,36.3,30.07,WSW,256,0.0,0.0,94,0.00,,---,0.00,VWS V14.01,2013-04-24 07:50:00,
2013-04-24 03:55:00,37.9,36.3,30.07,SW,236,0.0,2.0,94,0.00,,---,0.00,VWS V14.01,2013-04-24 07:55:00,
2013-04-24 04:00:00,37.8,36.2,30.07,SW,236,0.0,2.0,94,0.00,,---,0.00,VWS V14.01,2013-04-24 08:00:00,
2013-04-24 04:05:00,37.7,36.1,30.07,SW,236,0.0,0.0,94,0.00,,---,0.00,VWS V14.01,2013-04-24 08:05:00,
2013-04-24 04:10:00,37.5,35.9,30.07,SW,236,0.0,0.0,94,0.00,,---,0.00,VWS V14.01,2013-04-24 08:10:00,
2013-04-24 04:15:00,37.5,36.2,30.07,SW,236,0.0,0.0,95,0.00,,---,0.00,VWS V14.01,2013-04-24 08:15:00,
2013-04-24 04:20:00,37.5,36.2,30.07,SSE,159,0.0,0.0,95,0.00,,---,0.00,VWS V14.01,2013-04-24 08:20:00,
2013-04-24 04:25:00,37.4,36.1,30.07,SSE,160,0.0,0.0,95,0.00,,---,0.00,VWS V14.01,2013-04-24 08:25:00,
2013-04-24 04:30:00,37.3,36.0,30.08,SSE,160,0.0,0.0,95,0.00,,---,0.00,VWS V14.01,2013-04-24 08:30:00,
2013-04-24 04:35:00,37.4,36.1,30.08,SSE,160,0.0,0.0,95,0.00,,---,0.00,VWS V14.01,2013-04-24 08:35:00,
2013-04-24 04:40:00,37.3,36.0,30.07,SSE,160,0.0,0.0,95,0.00,,---,0.00,VWS V14.01,2013-04-24 08:40:00,
2013-04-24 04:45:00,37.1,35.8,30.07,SSE,161,0.0,0.0,95,0.00,,---,0.00,VWS V14.01,2013-04-24 08:45:00,
2013-04-24 04:50:00,37.0,35.7,30.07,SSE,159,0.0,0.0,95,0.00,,---,0.00,VWS V14.01,2013-04-24 08:50:00,
2013-04-24 04:55:00,36.9,35.6,30.07,SSE,160,0.0,0.0,95,0.00,,---,0.00,VWS V14.01,2013-04-24 08:55:00,
2013-04-24 05:00:00,36.9,35.6,30.07,SSE,160,0.0,0.0,95,0.00,,---,0.00,VWS V14.01,2013-04-24 09:00:00,
2013-04-24 05:05:00,36.9,35.9,30.07,SSE,160,0.0,0.0,96,0.00,,---,0.00,VWS V14.01,2013-04-24 09:05:00,
2013-04-24 05:10:00,36.9,35.9,30.07,SSE,162,0.0,0.0,96,0.00,,---,0.00,VWS V14.01,2013-04-24 09:10:00,
2013-04-24 05:15:00,37.3,36.3,30.07,SE,146,1.0,3.0,96,0.00,,---,0.00,VWS V14.01,2013-04-24 09:15:00,
2013-04-24 05:20:00,37.6,36.6,30.08,SSW,205,1.0,3.0,96,0.00,,---,0.00,VWS V14.01,2013-04-24 09:20:00,
2013-04-24 05:25:00,37.8,36.8,30.08,SE,142,0.0,3.0,96,0.00,,---,0.00,VWS V14.01,2013-04-24 09:25:00,
2013-04-24 05:30:00,38.0,37.0,30.08,SSE,150,0.0,3.0,96,0.00,,---,0.00,VWS V14.01,2013-04-24 09:30:00,
2013-04-24 05:35:00,38.1,37.1,30.07,SSE,165,2.0,2.0,96,0.00,,---,0.00,VWS V14.01,2013-04-24 09:35:00,
2013-04-24 05:40:00,38.2,37.2,30.07,SE,145,0.0,2.0,96,0.00,,---,0.00,VWS V14.01,2013-04-24 09:40:00,
2013-04-24 05:45:00,38.1,36.8,30.07,SE,145,0.0,2.0,95,0.00,,---,0.00,VWS V14.01,2013-04-24 09:45:00,
2013-04-24 05:50:00,37.8,36.5,30.07,SW,217,0.0,2.0,95,0.00,,---,0.00,VWS V14.01,2013-04-24 09:50:00,
2013-04-24 05:55:00,37.7,36.4,30.08,WSW,240,0.0,2.0,95,0.00,,---,0.00,VWS V14.01,2013-04-24 09:55:00,
2013-04-24 06:00:00,37.6,36.3,30.08,South,183,0.0,2.0,95,0.00,,---,0.00,VWS V14.01,2013-04-24 10:00:00,
2013-04-24 06:05:00,37.4,36.1,30.08,South,183,0.0,0.0,95,0.00,,---,0.00,VWS V14.01,2013-04-24 10:05:00,
2013-04-24 06:10:00,37.4,36.1,30.08,SW,221,0.0,0.0,95,0.00,,---,0.00,VWS V14.01,2013-04-24 10:10:00,
2013-04-24 06:15:00,37.5,36.5,30.08,SW,225,1.0,2.0,96,0.00,,---,0.00,VWS V14.01,2013-04-24 10:15:00,
2013-04-24 06:20:00,37.5,36.5,30.08,SSW,195,0.0,2.0,96,0.00,,---,0.00,VWS V14.01,2013-04-24 10:20:00,
2013-04-24 06:25:00,37.7,36.7,30.08,SSW,194,0.0,2.0,96,0.00,,---,0.00,VWS V14.01,2013-04-24 10:25:00,
2013-04-24 06:30:00,37.6,36.6,30.08,SSW,194,0.0,2.0,96,0.00,,---,0.00,VWS V14.01,2013-04-24 10:30:00,
2013-04-24 06:35:00,37.5,36.5,30.07,SSW,194,0.0,0.0,96,0.00,,---,0.00,VWS V14.01,2013-04-24 10:35:00,
2013-04-24 06:40:00,37.7,36.7,30.07,SSW,194,0.0,0.0,96,0.00,,---,0.00,VWS V14.01,2013-04-24 10:40:00,
2013-04-24 06:45:00,38.0,37.0,30.07,SSW,194,0.0,0.0,96,0.00,,---,0.00,VWS V14.01,2013-04-24 10:45:00,
2013-04-24 06:50:00,38.1,37.1,30.07,SSW,193,0.0,0.0,96,0.00,,---,0.00,VWS V14.01,2013-04-24 10:50:00,
2013-04-24 06:55:00,38.3,37.3,30.07,SSW,193,0.0,0.0,96,0.00,,---,0.00,VWS V14.01,2013-04-24 10:55:00,
2013-04-24 07:00:00,38.4,37.4,30.07,SSW,193,0.0,0.0,96,0.00,,---,0.00,VWS V14.01,2013-04-24 11:00:00,
2013-04-24 07:05:00,38.6,37.6,30.08,SSW,194,0.0,0.0,96,0.00,,---,0.00,VWS V14.01,2013-04-24 11:05:00,
2013-04-24 07:10:00,38.9,37.9,30.08,SSW,194,0.0,0.0,96,0.00,,---,0.00,VWS V14.01,2013-04-24 11:10:00,
2013-04-24 07:15:00,39.2,38.2,30.08,SSW,194,0.0,0.0,96,0.00,,---,0.00,VWS V14.01,2013-04-24 11:15:00,
2013-04-24 07:20:00,39.4,38.4,30.08,SSW,194,0.0,0.0,96,0.00,,---,0.00,VWS V14.01,2013-04-24 11:20:00,
2013-04-24 07:25:00,39.7,38.9,30.08,SW,226,1.0,1.0,97,0.00,,---,0.00,VWS V14.01,2013-04-24 11:25:00,
2013-04-24 07:30:00,40.2,39.2,30.08,West,260,1.0,1.0,96,0.00,,---,0.00,VWS V14.01,2013-04-24 11:30:00,
2013-04-24 07:35:00,40.8,39.5,30.08,SE,139,0.0,1.0,95,0.00,,---,0.00,VWS V14.01,2013-04-24 11:35:00,
2013-04-24 07:40:00,41.4,39.5,30.08,SE,143,0.0,1.0,93,0.00,,---,0.00,VWS V14.01,2013-04-24 11:40:00,
2013-04-24 07:45:00,41.8,39.4,30.08,West,265,0.0,1.0,91,0.00,,---,0.00,VWS V14.01,2013-04-24 11:45:00,
2013-04-24 07:50:00,42.2,39.5,30.07,WNW,290,0.0,2.0,90,0.00,,---,0.00,VWS V14.01,2013-04-24 11:50:00,
2013-04-24 07:55:00,42.5,39.5,30.08,WSW,255,3.0,3.0,89,0.00,,---,0.00,VWS V14.01,2013-04-24 11:55:00,
2013-04-24 08:00:00,42.8,39.5,30.07,SW,217,1.0,4.0,88,0.00,,---,0.00,VWS V14.01,2013-04-24 12:00:00,
2013-04-24 08:05:00,43.2,39.9,30.07,West,277,0.0,2.0,88,0.00,,---,0.00,VWS V14.01,2013-04-24 12:05:00,
2013-04-24 08:10:00,43.7,40.1,30.07,West,269,3.0,3.0,87,0.00,,---,0.00,VWS V14.01,2013-04-24 12:10:00,
2013-04-24 08:15:00,44.1,40.2,30.07,West,278,0.0,3.0,86,0.00,,---,0.00,VWS V14.01,2013-04-24 12:15:00,
2013-04-24 08:20:00,44.7,40.8,30.07,West,260,0.0,3.0,86,0.00,,---,0.00,VWS V14.01,2013-04-24 12:20:00,
2013-04-24 08:25:00,45.3,41.1,30.07,West,277,1.0,3.0,85,0.00,,---,0.00,VWS V14.01,2013-04-24 12:25:00,
2013-04-24 08:30:00,45.8,41.2,30.06,WSW,249,0.0,3.0,84,0.00,,---,0.00,VWS V14.01,2013-04-24 12:30:00,
2013-04-24 08:35:00,46.4,41.2,30.06,SE,129,1.0,3.0,82,0.00,,---,0.00,VWS V14.01,2013-04-24 12:35:00,
2013-04-24 08:40:00,47.1,41.9,30.06,SSW,212,0.0,3.0,82,0.00,,---,0.00,VWS V14.01,2013-04-24 12:40:00,
2013-04-24 08:45:00,47.8,42.3,30.06,SW,225,2.0,3.0,81,0.00,,---,0.00,VWS V14.01,2013-04-24 12:45:00,
2013-04-24 08:50:00,48.4,42.2,30.05,SE,142,3.0,3.0,79,0.00,,---,0.00,VWS V14.01,2013-04-24 12:50:00,
2013-04-24 08:55:00,48.7,42.5,30.05,SSE,159,2.0,3.0,79,0.00,,---,0.00,VWS V14.01,2013-04-24 12:55:00,
2013-04-24 09:00:00,49.2,42.3,30.05,SW,215,1.0,3.0,77,0.00,,---,0.00,VWS V14.01,2013-04-24 13:00:00,
2013-04-24 09:05:00,49.7,42.5,30.05,West,271,2.0,2.0,76,0.00,,---,0.00,VWS V14.01,2013-04-24 13:05:00,
2013-04-24 09:10:00,50.0,42.4,30.05,West,263,1.0,4.0,75,0.00,,---,0.00,VWS V14.01,2013-04-24 13:10:00,
2013-04-24 09:15:00,50.5,42.9,30.04,SW,236,1.0,4.0,75,0.00,,---,0.00,VWS V14.01,2013-04-24 13:15:00,
2013-04-24 09:20:00,51.1,43.1,30.04,SSE,148,0.0,4.0,74,0.00,,---,0.00,VWS V14.01,2013-04-24 13:20:00,
2013-04-24 09:25:00,51.4,43.4,30.04,WSW,256,1.0,4.0,74,0.00,,---,0.00,VWS V14.01,2013-04-24 13:25:00,
2013-04-24 09:30:00,51.9,43.5,30.04,SW,226,2.0,4.0,73,0.00,,---,0.00,VWS V14.01,2013-04-24 13:30:00,
2013-04-24 09:35:00,52.2,43.1,30.04,West,275,2.0,5.0,71,0.00,,---,0.00,VWS V14.01,2013-04-24 13:35:00,
2013-04-24 09:40:00,52.4,43.7,30.04,WSW,256,4.0,5.0,72,0.00,,---,0.00,VWS V14.01,2013-04-24 13:40:00,
2013-04-24 09:45:00,52.8,44.0,30.04,SSW,202,2.0,5.0,72,0.00,,---,0.00,VWS V14.01,2013-04-24 13:45:00,
2013-04-24 09:50:00,53.3,43.4,30.04,West,273,4.0,5.0,69,0.00,,---,0.00,VWS V14.01,2013-04-24 13:50:00,
2013-04-24 09:55:00,53.2,43.7,30.03,West,273,0.0,5.0,70,0.00,,---,0.00,VWS V14.01,2013-04-24 13:55:00,
2013-04-24 10:00:00,53.9,44.0,30.03,NW,323,0.0,5.0,69,0.00,,---,0.00,VWS V14.01,2013-04-24 14:00:00,
2013-04-24 10:05:00,54.4,44.5,30.03,NW,323,0.0,4.0,69,0.00,,---,0.00,VWS V14.01,2013-04-24 14:05:00,
2013-04-24 10:10:00,55.1,44.3,30.03,SE,142,0.0,4.0,67,0.00,,---,0.00,VWS V14.01,2013-04-24 14:10:00,
2013-04-24 10:15:00,55.5,44.7,30.03,SSE,153,1.0,4.0,67,0.00,,---,0.00,VWS V14.01,2013-04-24 14:15:00,
2013-04-24 10:20:00,56.1,44.5,30.03,SW,224,0.0,4.0,65,0.00,,---,0.00,VWS V14.01,2013-04-24 14:20:00,
2013-04-24 10:25:00,57.0,45.4,30.02,SW,222,0.0,4.0,65,0.00,,---,0.00,VWS V14.01,2013-04-24 14:25:00,
2013-04-24 10:30:00,57.9,45.4,30.02,WSW,257,0.0,4.0,63,0.00,,---,0.00,VWS V14.01,2013-04-24 14:30:00,
2013-04-24 10:35:00,58.8,45.8,30.02,SSE,148,3.0,3.0,62,0.00,,---,0.00,VWS V14.01,2013-04-24 14:35:00,
2013-04-24 10:40:00,59.5,45.6,30.02,West,270,2.0,4.0,60,0.00,,---,0.00,VWS V14.01,2013-04-24 14:40:00,
2013-04-24 10:45:00,59.7,45.4,30.01,SW,229,2.0,4.0,59,0.00,,---,0.00,VWS V14.01,2013-04-24 14:45:00,
2013-04-24 10:50:00,60.5,45.7,30.01,SSE,155,1.0,4.0,58,0.00,,---,0.00,VWS V14.01,2013-04-24 14:50:00,
2013-04-24 10:55:00,60.9,46.0,30.01,SE,146,1.0,5.0,58,0.00,,---,0.00,VWS V14.01,2013-04-24 14:55:00,
2013-04-24 11:00:00,61.7,45.9,30.01,West,273,4.0,5.0,56,0.00,,---,0.00,VWS V14.01,2013-04-24 15:00:00,
2013-04-24 11:05:00,61.4,45.6,30.01,West,263,6.0,7.0,56,0.00,,---,0.00,VWS V14.01,2013-04-24 15:05:00,
2013-04-24 11:10:00,61.6,46.2,30.00,ENE,73,2.0,7.0,57,0.00,,---,0.00,VWS V14.01,2013-04-24 15:10:00,
2013-04-24 11:15:00,62.6,46.2,30.00,SW,218,2.0,7.0,55,0.00,,---,0.00,VWS V14.01,2013-04-24 15:15:00,
2013-04-24 11:20:00,62.9,46.0,30.00,West,264,3.0,7.0,54,0.00,,---,0.00,VWS V14.01,2013-04-24 15:20:00,
2013-04-24 11:25:00,63.0,46.1,30.00,WSW,253,3.0,7.0,54,0.00,,---,0.00,VWS V14.01,2013-04-24 15:25:00,
2013-04-24 11:30:00,63.1,46.7,29.99,West,270,3.0,7.0,55,0.00,,---,0.00,VWS V14.01,2013-04-24 15:30:00,
2013-04-24 11:35:00,64.1,46.6,29.99,West,269,4.0,8.0,53,0.00,,---,0.00,VWS V14.01,2013-04-24 15:35:00,
2013-04-24 11:40:00,64.1,46.6,29.99,West,274,5.0,8.0,53,0.00,,---,0.00,VWS V14.01,2013-04-24 15:40:00,
2013-04-24 11:45:00,63.8,46.4,29.99,WSW,243,4.0,8.0,53,0.00,,---,0.00,VWS V14.01,2013-04-24 15:45:00,
2013-04-24 11:50:00,64.4,47.4,29.98,West,260,5.0,8.0,54,0.00,,---,0.00,VWS V14.01,2013-04-24 15:50:00,
2013-04-24 11:55:00,64.1,47.1,29.98,WSW,252,3.0,8.0,54,0.00,,---,0.00,VWS V14.01,2013-04-24 15:55:00,
2013-04-24 12:00:00,64.3,47.8,29.98,SE,127,5.0,10.0,55,0.00,,---,0.00,VWS V14.01,2013-04-24 16:00:00,
2013-04-24 12:05:00,65.0,47.0,29.97,West,274,3.0,6.0,52,0.00,,---,0.00,VWS V14.01,2013-04-24 16:05:00,
2013-04-24 12:10:00,65.3,47.8,29.97,SSE,159,2.0,6.0,53,0.00,,---,0.00,VWS V14.01,2013-04-24 16:10:00,
2013-04-24 12:15:00,66.4,47.7,29.96,SE,136,2.0,6.0,51,0.00,,---,0.00,VWS V14.01,2013-04-24 16:15:00,
2013-04-24 12:20:00,66.7,48.0,29.96,WSW,246,2.0,6.0,51,0.00,,---,0.00,VWS V14.01,2013-04-24 16:20:00,
2013-04-24 12:25:00,66.5,46.8,29.95,WSW,251,2.0,10.0,49,0.00,,---,0.00,VWS V14.01,2013-04-24 16:25:00,
2013-04-24 12:30:00,66.6,47.9,29.95,West,262,5.0,10.0,51,0.00,,---,0.00,VWS V14.01,2013-04-24 16:30:00,
2013-04-24 12:35:00,67.1,47.9,29.95,SW,215,3.0,5.0,50,0.00,,---,0.00,VWS V14.01,2013-04-24 16:35:00,
2013-04-24 12:40:00,67.0,48.3,29.95,WSW,238,1.0,7.0,51,0.00,,---,0.00,VWS V14.01,2013-04-24 16:40:00,
2013-04-24 12:45:00,67.6,48.3,29.95,WSW,250,3.0,7.0,50,0.00,,---,0.00,VWS V14.01,2013-04-24 16:45:00,
2013-04-24 12:50:00,67.8,48.5,29.95,South,190,1.0,7.0,50,0.00,,---,0.00,VWS V14.01,2013-04-24 16:50:00,
2013-04-24 12:55:00,68.3,47.9,29.94,SE,146,4.0,7.0,48,0.00,,---,0.00,VWS V14.01,2013-04-24 16:55:00,
2013-04-24 13:00:00,67.4,47.0,29.94,WSW,253,2.0,8.0,48,0.00,,---,0.00,VWS V14.01,2013-04-24 17:00:00,
2013-04-24 13:05:00,67.0,48.3,29.94,SSE,158,2.0,6.0,51,0.00,,---,0.00,VWS V14.01,2013-04-24 17:05:00,
2013-04-24 13:10:00,67.7,48.9,29.93,West,268,2.0,9.0,51,0.00,,---,0.00,VWS V14.01,2013-04-24 17:10:00,
2013-04-24 13:15:00,68.3,49.0,29.93,SW,226,1.0,9.0,50,0.00,,---,0.00,VWS V14.01,2013-04-24 17:15:00,
2013-04-24 13:20:00,67.5,48.2,29.93,SSE,150,3.0,11.0,50,0.00,,---,0.00,VWS V14.01,2013-04-24 17:20:00,
2013-04-24 13:25:00,67.3,47.5,29.92,West,269,6.0,11.0,49,0.00,,---,0.00,VWS V14.01,2013-04-24 17:25:00,
2013-04-24 13:30:00,67.1,48.9,29.92,West,266,1.0,11.0,52,0.00,,---,0.00,VWS V14.01,2013-04-24 17:30:00,
2013-04-24 13:35:00,68.1,48.8,29.92,South,170,1.0,6.0,50,0.00,,---,0.00,VWS V14.01,2013-04-24 17:35:00,
2013-04-24 13:40:00,68.7,48.8,29.92,SSE,152,4.0,7.0,49,0.00,,---,0.00,VWS V14.01,2013-04-24 17:40:00,
2013-04-24 13:45:00,68.4,49.1,29.92,West,278,3.0,7.0,50,0.00,,---,0.00,VWS V14.01,2013-04-24 17:45:00,
2013-04-24 13:50:00,68.6,49.2,29.92,West,273,8.0,10.0,50,0.00,,---,0.00,VWS V14.01,2013-04-24 17:50:00,
2013-04-24 13:55:00,68.1,49.3,29.92,SW,222,1.0,10.0,51,0.00,,---,0.00,VWS V14.01,2013-04-24 17:55:00,
2013-04-24 14:00:00,69.2,50.3,29.92,East,82,1.0,10.0,51,0.00,,---,0.00,VWS V14.01,2013-04-24 18:00:00,
2013-04-24 14:05:00,69.3,49.3,29.91,NW,307,3.0,7.0,49,0.00,,---,0.00,VWS V14.01,2013-04-24 18:05:00,
2013-04-24 14:10:00,69.7,50.2,29.91,SE,129,2.0,7.0,50,0.00,,---,0.00,VWS V14.01,2013-04-24 18:10:00,
2013-04-24 14:15:00,70.3,49.7,29.91,WSW,243,2.0,7.0,48,0.00,,---,0.00,VWS V14.01,2013-04-24 18:15:00,
2013-04-24 14:20:00,70.4,49.8,29.91,West,264,2.0,8.0,48,0.00,,---,0.00,VWS V14.01,2013-04-24 18:20:00,
2013-04-24 14:25:00,71.1,49.9,29.90,West,259,4.0,8.0,47,0.00,,---,0.00,VWS V14.01,2013-04-24 18:25:00,
2013-04-24 14:30:00,71.2,50.5,29.90,WSW,243,2.0,8.0,48,0.00,,---,0.00,VWS V14.01,2013-04-24 18:30:00,
2013-04-24 14:35:00,70.5,49.9,29.89,SSE,162,2.0,6.0,48,0.00,,---,0.00,VWS V14.01,2013-04-24 18:35:00,
2013-04-24 14:40:00,70.7,50.1,29.89,West,281,1.0,6.0,48,0.00,,---,0.00,VWS V14.01,2013-04-24 18:40:00,
2013-04-24 14:45:00,70.4,49.8,29.88,West,264,4.0,9.0,48,0.00,,---,0.00,VWS V14.01,2013-04-24 18:45:00,
2013-04-24 14:50:00,70.0,50.0,29.88,West,276,5.0,10.0,49,0.00,,---,0.00,VWS V14.01,2013-04-24 18:50:00,
2013-04-24 14:55:00,71.2,50.5,29.88,South,184,1.0,10.0,48,0.00,,---,0.00,VWS V14.01,2013-04-24 18:55:00,
2013-04-24 15:00:00,71.7,50.4,29.88,ESE,112,3.0,10.0,47,0.00,,---,0.00,VWS V14.01,2013-04-24 19:00:00,
2013-04-24 15:05:00,72.0,50.7,29.87,South,183,0.0,7.0,47,0.00,,---,0.00,VWS V14.01,2013-04-24 19:05:00,
2013-04-24 15:10:00,73.1,51.1,29.87,SSE,166,0.0,7.0,46,0.00,,---,0.00,VWS V14.01,2013-04-24 19:10:00,
2013-04-24 15:15:00,73.1,50.5,29.87,West,277,1.0,7.0,45,0.00,,---,0.00,VWS V14.01,2013-04-24 19:15:00,
2013-04-24 15:20:00,73.3,50.7,29.86,SSW,200,1.0,7.0,45,0.00,,---,0.00,VWS V14.01,2013-04-24 19:20:00,
2013-04-24 15:25:00,73.4,50.2,29.86,SSW,198,1.0,7.0,44,0.00,,---,0.00,VWS V14.01,2013-04-24 19:25:00,
2013-04-24 15:30:00,73.1,49.9,29.86,SE,129,7.0,9.0,44,0.00,,---,0.00,VWS V14.01,2013-04-24 19:30:00,
2013-04-24 15:35:00,73.2,50.0,29.85,South,172,5.0,8.0,44,0.00,,---,0.00,VWS V14.01,2013-04-24 19:35:00,
2013-04-24 15:40:00,73.2,50.0,29.85,WNW,287,3.0,8.0,44,0.00,,---,0.00,VWS V14.01,2013-04-24 19:40:00,
2013-04-24 15:45:00,73.4,50.2,29.85,SSE,160,2.0,8.0,44,0.00,,---,0.00,VWS V14.01,2013-04-24 19:45:00,
2013-04-24 15:50:00,73.5,50.9,29.85,SE,139,4.0,8.0,45,0.00,,---,0.00,VWS V14.01,2013-04-24 19:50:00,
2013-04-24 15:55:00,73.9,51.2,29.85,WSW,248,3.0,8.0,45,0.00,,---,0.00,VWS V14.01,2013-04-24 19:55:00,
2013-04-24 16:00:00,74.1,51.4,29.85,NNW,328,0.0,10.0,45,0.00,,---,0.00,VWS V14.01,2013-04-24 20:00:00,
2013-04-24 16:05:00,73.9,50.6,29.85,WSW,242,3.0,7.0,44,0.00,,---,0.00,VWS V14.01,2013-04-24 20:05:00,
2013-04-24 16:10:00,73.7,51.1,29.84,West,278,1.0,7.0,45,0.00,,---,0.00,VWS V14.01,2013-04-24 20:10:00,
2013-04-24 16:15:00,73.7,50.5,29.85,WNW,293,3.0,7.0,44,0.00,,---,0.00,VWS V14.01,2013-04-24 20:15:00,
2013-04-24 16:20:00,73.7,50.5,29.84,SW,219,2.0,7.0,44,0.00,,---,0.00,VWS V14.01,2013-04-24 20:20:00,
2013-04-24 16:25:00,73.7,51.1,29.84,SSW,205,2.0,8.0,45,0.00,,---,0.00,VWS V14.01,2013-04-24 20:25:00,
2013-04-24 16:30:00,73.5,50.9,29.84,SSW,203,0.0,8.0,45,0.00,,---,0.00,VWS V14.01,2013-04-24 20:30:00,
2013-04-24 16:35:00,74.2,51.5,29.84,SSW,193,2.0,3.0,45,0.00,,---,0.00,VWS V14.01,2013-04-24 20:35:00,
2013-04-24 16:40:00,74.2,51.5,29.84,West,266,3.0,7.0,45,0.00,,---,0.00,VWS V14.01,2013-04-24 20:40:00,
2013-04-24 16:45:00,74.2,50.9,29.84,West,271,2.0,7.0,44,0.00,,---,0.00,VWS V14.01,2013-04-24 20:45:00,
2013-04-24 16:50:00,74.5,51.8,29.84,North,5,3.0,7.0,45,0.00,,---,0.00,VWS V14.01,2013-04-24 20:50:00,
2013-04-24 16:55:00,74.4,51.7,29.84,West,273,2.0,7.0,45,0.00,,---,0.00,VWS V14.01,2013-04-24 20:55:00,
2013-04-24 17:00:00,74.3,51.6,29.84,SE,135,1.0,7.0,45,0.00,,---,0.00,VWS V14.01,2013-04-24 21:00:00,
2013-04-24 17:05:00,74.1,51.4,29.84,SE,139,3.0,6.0,45,0.00,,---,0.00,VWS V14.01,2013-04-24 21:05:00,
2013-04-24 17:10:00,73.5,51.5,29.84,South,169,4.0,8.0,46,0.00,,---,0.00,VWS V14.01,2013-04-24 21:10:00,
2013-04-24 17:15:00,73.0,51.0,29.84,SE,128,1.0,8.0,46,0.00,,---,0.00,VWS V14.01,2013-04-24 21:15:00,
2013-04-24 17:20:00,72.7,51.9,29.84,ENE,73,1.0,8.0,48,0.00,,---,0.00,VWS V14.01,2013-04-24 21:20:00,
2013-04-24 17:25:00,72.3,51.5,29.83,SE,131,1.0,8.0,48,0.00,,---,0.00,VWS V14.01,2013-04-24 21:25:00,
2013-04-24 17:30:00,71.8,51.6,29.83,ENE,65,2.0,8.0,49,0.00,,---,0.00,VWS V14.01,2013-04-24 21:30:00,
2013-04-24 17:35:00,70.9,51.3,29.83,ESE,103,1.0,6.0,50,0.00,,---,0.00,VWS V14.01,2013-04-24 21:35:00,
2013-04-24 17:40:00,70.3,51.3,29.83,SE,145,3.0,6.0,51,0.00,,---,0.00,VWS V14.01,2013-04-24 21:40:00,
2013-04-24 17:45:00,70.1,51.2,29.83,SSE,147,2.0,6.0,51,0.00,,---,0.00,VWS V14.01,2013-04-24 21:45:00,
2013-04-24 17:50:00,69.3,50.9,29.82,NE,46,3.0,6.0,52,0.00,,---,0.00,VWS V14.01,2013-04-24 21:50:00,
2013-04-24 17:55:00,69.0,51.2,29.82,NE,55,0.0,6.0,53,0.00,,---,0.00,VWS V14.01,2013-04-24 21:55:00,
2013-04-24 18:00:00,68.7,50.9,29.82,SE,127,0.0,6.0,53,0.00,,---,0.00,VWS V14.01,2013-04-24 22:00:00,
2013-04-24 18:05:00,68.4,51.6,29.81,SSW,201,0.0,3.0,55,0.00,,---,0.00,VWS V14.01,2013-04-24 22:05:00,
2013-04-24 18:10:00,68.3,51.5,29.81,SE,141,0.0,3.0,55,0.00,,---,0.00,VWS V14.01,2013-04-24 22:10:00,
2013-04-24 18:15:00,67.9,51.2,29.81,SE,127,1.0,5.0,55,0.00,,---,0.00,VWS V14.01,2013-04-24 22:15:00,
2013-04-24 18:20:00,67.1,50.9,29.81,NE,41,2.0,6.0,56,0.00,,---,0.00,VWS V14.01,2013-04-24 22:20:00,
2013-04-24 18:25:00,66.5,51.3,29.81,SE,134,2.0,6.0,58,0.00,,---,0.00,VWS V14.01,2013-04-24 22:25:00,
2013-04-24 18:29:00,66.1,51.4,29.82,ENE,62,2.0,6.0,59,0.00,,---,0.00,VWS V14.01,2013-04-24 22:29:00,
2013-04-24 18:34:00,65.6,51.4,29.82,SE,131,1.0,4.0,60,0.00,,---,0.00,VWS V14.01,2013-04-24 22:34:00,
2013-04-24 18:39:00,65.1,50.9,29.82,SSE,162,3.0,4.0,60,0.00,,---,0.00,VWS V14.01,2013-04-24 22:39:00,
2013-04-24 18:44:00,64.8,51.5,29.81,NW,304,0.0,4.0,62,0.00,,---,0.00,VWS V14.01,2013-04-24 22:44:00,
2013-04-24 18:49:00,64.3,51.5,29.81,WSW,240,0.0,4.0,63,0.00,,---,0.00,VWS V14.01,2013-04-24 22:49:00,
2013-04-24 18:54:00,63.7,51.3,29.82,ENE,75,0.0,4.0,64,0.00,,---,0.00,VWS V14.01,2013-04-24 22:54:00,
2013-04-24 18:59:00,63.3,51.3,29.82,ENE,58,2.0,4.0,65,0.00,,---,0.00,VWS V14.01,2013-04-24 22:59:00,
2013-04-24 19:04:00,62.8,51.3,29.82,East,86,0.0,6.0,66,0.00,,---,0.00,VWS V14.01,2013-04-24 23:04:00,
2013-04-24 19:09:00,62.5,51.4,29.82,SE,140,4.0,6.0,67,0.00,,---,0.00,VWS V14.01,2013-04-24 23:09:00,
2013-04-24 19:14:00,62.1,51.0,29.82,SE,143,0.0,6.0,67,0.00,,---,0.00,VWS V14.01,2013-04-24 23:14:00,
2013-04-24 19:19:00,61.9,51.2,29.83,WNW,300,1.0,6.0,68,0.00,,---,0.00,VWS V14.01,2013-04-24 23:19:00,
2013-04-24 19:24:00,61.6,51.3,29.84,SSE,150,0.0,6.0,69,0.00,,---,0.00,VWS V14.01,2013-04-24 23:24:00,
2013-04-24 19:29:00,61.4,51.2,29.84,SE,125,1.0,6.0,69,0.00,,---,0.00,VWS V14.01,2013-04-24 23:29:00,
2013-04-24 19:34:00,61.2,51.3,29.84,SE,136,2.0,2.0,70,0.00,,---,0.00,VWS V14.01,2013-04-24 23:34:00,
2013-04-24 19:39:00,61.0,51.2,29.84,SSE,156,0.0,2.0,70,0.00,,---,0.00,VWS V14.01,2013-04-24 23:39:00,
2013-04-24 19:44:00,60.9,51.5,29.85,SE,146,0.0,2.0,71,0.00,,---,0.00,VWS V14.01,2013-04-24 23:44:00,
2013-04-24 19:49:00,60.7,51.2,29.85,ESE,115,0.0,2.0,71,0.00,,---,0.00,VWS V14.01,2013-04-24 23:49:00,
2013-04-24 19:54:00,60.5,51.1,29.85,SE,129,0.0,2.0,71,0.00,,---,0.00,VWS V14.01,2013-04-24 23:54:00,
2013-04-24 19:59:00,60.3,51.2,29.85,SE,129,1.0,2.0,72,0.00,,---,0.00,VWS V14.01,2013-04-24 23:59:00,
2013-04-24 20:04:00,60.0,51.0,29.85,SE,129,0.0,0.0,72,0.00,,---,0.00,VWS V14.01,2013-04-25 00:04:00,
2013-04-24 20:09:00,59.8,51.1,29.85,ENE,71,1.0,2.0,73,0.00,,---,0.00,VWS V14.01,2013-04-25 00:09:00,
2013-04-24 20:14:00,59.6,51.0,29.85,NE,43,0.0,2.0,73,0.00,,---,0.00,VWS V14.01,2013-04-25 00:14:00,
2013-04-24 20:19:00,59.4,51.1,29.85,NE,44,0.0,2.0,74,0.00,,---,0.00,VWS V14.01,2013-04-25 00:19:00,
2013-04-24 20:24:00,59.3,51.4,29.85,NE,44,0.0,2.0,75,0.00,,---,0.00,VWS V14.01,2013-04-25 00:24:00,
2013-04-24 20:29:00,59.2,51.3,29.85,NNE,15,2.0,2.0,75,0.00,,---,0.00,VWS V14.01,2013-04-25 00:29:00,
2013-04-24 20:34:00,59.2,51.3,29.85,SSE,149,0.0,3.0,75,0.00,,---,0.00,VWS V14.01,2013-04-25 00:34:00,
2013-04-24 20:39:00,59.1,51.2,29.86,SE,140,0.0,3.0,75,0.00,,---,0.00,VWS V14.01,2013-04-25 00:39:00,
2013-04-24 20:44:00,58.8,51.3,29.86,NE,34,2.0,3.0,76,0.00,,---,0.00,VWS V14.01,2013-04-25 00:44:00,
2013-04-24 20:49:00,58.5,51.0,29.86,ENE,72,1.0,3.0,76,0.00,,---,0.00,VWS V14.01,2013-04-25 00:49:00,
2013-04-24 20:54:00,58.3,50.8,29.85,ENE,72,1.0,3.0,76,0.00,,---,0.00,VWS V14.01,2013-04-25 00:54:00,
2013-04-24 20:59:00,58.1,50.9,29.86,NE,49,1.0,3.0,77,0.00,,---,0.00,VWS V14.01,2013-04-25 00:59:00,
2013-04-24 21:04:00,57.9,50.7,29.86,NE,49,1.0,1.0,77,0.00,,---,0.00,VWS V14.01,2013-04-25 01:04:00,
2013-04-24 21:09:00,57.9,51.4,29.86,NE,37,2.0,2.0,79,0.00,,---,0.00,VWS V14.01,2013-04-25 01:09:00,
2013-04-24 21:14:00,57.8,51.3,29.87,NE,45,2.0,3.0,79,0.00,,---,0.00,VWS V14.01,2013-04-25 01:14:00,
2013-04-24 21:19:00,57.6,50.8,29.87,ENE,63,0.0,3.0,78,0.00,,---,0.00,VWS V14.01,2013-04-25 01:19:00,
2013-04-24 21:24:00,57.5,50.7,29.87,ENE,62,0.0,3.0,78,0.00,,---,0.00,VWS V14.01,2013-04-25 01:24:00,
2013-04-24 21:29:00,57.4,51.0,29.87,ENE,63,0.0,3.0,79,0.00,,---,0.00,VWS V14.01,2013-04-25 01:29:00,
2013-04-24 21:34:00,57.3,50.8,29.87,NE,49,1.0,2.0,79,0.00,,---,0.00,VWS V14.01,2013-04-25 01:34:00,
2013-04-24 21:39:00,57.2,51.1,29.87,NE,34,2.0,2.0,80,0.00,,---,0.00,VWS V14.01,2013-04-25 01:39:00,
2013-04-24 21:44:00,57.0,50.9,29.87,NE,41,2.0,3.0,80,0.00,,---,0.00,VWS V14.01,2013-04-25 01:44:00,
2013-04-24 21:49:00,56.8,50.7,29.87,NE,48,1.0,3.0,80,0.00,,---,0.00,VWS V14.01,2013-04-25 01:49:00,
2013-04-24 21:54:00,56.7,50.6,29.87,NE,41,1.0,3.0,80,0.00,,---,0.00,VWS V14.01,2013-04-25 01:54:00,
2013-04-24 21:59:00,56.5,50.4,29.87,NE,44,0.0,3.0,80,0.00,,---,0.00,VWS V14.01,2013-04-25 01:59:00,
2013-04-24 22:04:00,56.3,50.5,29.87,NE,44,0.0,0.0,81,0.00,,---,0.00,VWS V14.01,2013-04-25 02:04:00,
2013-04-24 22:09:00,56.2,50.8,29.87,NE,44,0.0,1.0,82,0.00,,---,0.00,VWS V14.01,2013-04-25 02:09:00,
2013-04-24 22:14:00,56.1,50.7,29.87,NE,41,1.0,2.0,82,0.00,,---,0.00,VWS V14.01,2013-04-25 02:14:00,
2013-04-24 22:19:00,56.0,50.6,29.87,NE,39,2.0,3.0,82,0.00,,---,0.00,VWS V14.01,2013-04-25 02:19:00,
2013-04-24 22:24:00,55.8,50.4,29.87,NE,44,2.0,3.0,82,0.00,,---,0.00,VWS V14.01,2013-04-25 02:24:00,
2013-04-24 22:29:00,55.7,50.6,29.88,NE,40,2.0,3.0,83,0.00,,---,0.00,VWS V14.01,2013-04-25 02:29:00,
2013-04-24 22:34:00,55.6,50.5,29.88,NE,36,2.0,3.0,83,0.00,,---,0.00,VWS V14.01,2013-04-25 02:34:00,
2013-04-24 22:39:00,55.5,50.4,29.87,NE,43,1.0,3.0,83,0.00,,---,0.00,VWS V14.01,2013-04-25 02:39:00,
2013-04-24 22:44:00,55.4,50.3,29.87,NE,43,1.0,3.0,83,0.00,,---,0.00,VWS V14.01,2013-04-25 02:44:00,
2013-04-24 22:49:00,55.3,50.2,29.87,NE,43,0.0,3.0,83,0.00,,---,0.00,VWS V14.01,2013-04-25 02:49:00,
2013-04-24 22:54:00,55.1,50.4,29.86,NE,40,0.0,3.0,84,0.00,,---,0.00,VWS V14.01,2013-04-25 02:54:00,
2013-04-24 22:59:00,55.0,50.3,29.87,NE,40,0.0,3.0,84,0.00,,---,0.00,VWS V14.01,2013-04-25 02:59:00,
2013-04-24 23:04:00,54.9,50.2,29.87,NE,39,0.0,0.0,84,0.00,,---,0.00,VWS V14.01,2013-04-25 03:04:00,
2013-04-24 23:09:00,54.9,50.5,29.87,NE,39,0.0,0.0,85,0.00,,---,0.00,VWS V14.01,2013-04-25 03:09:00,
2013-04-24 23:14:00,54.8,50.4,29.86,NE,40,0.0,0.0,85,0.00,,---,0.00,VWS V14.01,2013-04-25 03:14:00,
2013-04-24 23:19:00,54.9,50.5,29.86,NE,40,0.0,0.0,85,0.00,,---,0.00,VWS V14.01,2013-04-25 03:19:00,
2013-04-24 23:24:00,54.9,50.5,29.86,NE,39,0.0,0.0,85,0.00,,---,0.00,VWS V14.01,2013-04-25 03:24:00,
2013-04-24 23:29:00,54.9,50.5,29.86,NE,39,0.0,0.0,85,0.00,,---,0.00,VWS V14.01,2013-04-25 03:29:00,
2013-04-24 23:34:00,55.0,50.9,29.86,NE,39,0.0,0.0,86,0.00,,---,0.00,VWS V14.01,2013-04-25 03:34:00,
2013-04-24 23:39:00,55.0,50.6,29.86,NE,40,0.0,0.0,85,0.00,,---,0.00,VWS V14.01,2013-04-25 03:39:00,
2013-04-24 23:44:00,54.9,50.5,29.86,NE,40,0.0,0.0,85,0.00,,---,0.00,VWS V14.01,2013-04-25 03:44:00,
2013-04-24 23:49:00,54.9,50.5,29.85,NE,39,0.0,0.0,85,0.00,,---,0.00,VWS V14.01,2013-04-25 03:49:00,
2013-04-24 23:54:00,54.9,50.5,29.86,NE,39,0.0,0.0,85,0.00,,---,0.00,VWS V14.01,2013-04-25 03:54:00,
2013-04-24 23:59:00,54.9,50.8,29.85,NE,40,0.0,0.0,86,0.00,,---,0.00,VWS V14.01,2013-04-25 03:59:00,